Regional Weather Roundup
Issued by NWS

Home | Current Version | Previous Version | Graphics & Text | Print | Product List | Glossary On
Versions: 1 2 3 4 5 6 7 8 9 10 11 12 13 14 15 16 17 18 19 20 21 22 23 24 25 26 27 28 29 30 31 32 33 34 35 36 37 38 39 40 41 42 43 44 45 46 47 48 49 50
000
ASUS45 KABQ 252010
RWRNM
NEW MEXICO REGIONAL WEATHER ROUNDUP
NATIONAL WEATHER SERVICE ALBUQUERQUE NM
200 PM MDT TUE JUL 25 2017

NOTE: "FAIR" MEANS FEW OR NO CLOUDS BELOW 12,000 FEET AGL WITH NO
       SIGNIFICANT WEATHER OR OBSTRUCTIONS TO VISION.

      THIS PRODUCT IS RELEASED AS TWO VERSIONS.  ONE VERSION NEAR
      THE TOP OF THE HOUR CONTAINING PRELIMINARY DATA FROM ALBUQUERQUE
      AND OTHER STATIONS.  A FINAL VERSION WITH ADDITIONAL DATA IS
      ISSUED ABOUT 10 MINUTES AFTER THE HOUR.

NMZ501-503-504-510>518-252100-
NORTHWEST PLATEAU/NORTHCENTRAL MOUNTAINS

CITY           SKY/WX    TMP DP  RH WIND       PRES   REMARKS
FARMINGTON     FAIR      82  55  39 VRB3      30.17F
LOS ALAMOS     FAIR      82  51  34 SE12      30.31F
SANTA FE       FAIR      86  53  32 W10G20    30.24F
TAOS           FAIR      79  52  38 W16G22    30.31R
ANGEL FIRE     FAIR      75  55  49 W14G20    30.39F

$$
NMZ402-403-502-505>509-252100-
WESTCENTRAL MOUNTAINS/SOUTHWEST MOUNTAINS

CITY           SKY/WX    TMP DP  RH WIND       PRES   REMARKS
GALLUP         FAIR      78  58  49 W16       30.28F
GRANTS         PTSUNNY   83  49  30 CALM      30.29F
SILVER CITY    FAIR      84  57  39 W6        30.23F

$$
NMZ407-409-411-412-252100-
SOUTHERN DESERTS

CITY           SKY/WX    TMP DP  RH WIND       PRES   REMARKS
DEMING         FAIR      89  60  37 VRB7      30.15F
LAS CRUCES     CLOUDY    85  61  43 CALM      30.16F
HOLLOMAN AFB   FAIR      95  57  28 SW9       30.13F
ALAMOGORDO     FAIR      90  55  31 E3        30.14F
T OR C         PTSUNNY   88  56  33 NW15G21   30.17F

$$
NMZ519>523-252100-
CENTRAL VALLEYS/CENTRAL HIGHLANDS

CITY           SKY/WX    TMP DP  RH WIND       PRES   REMARKS
ALBUQUERQUE    FAIR      86  55  34 S3        30.18F
DOUBLE EAGLE   PTSUNNY   90  54  29 S10       30.22F
MORIARTY ARPT  PTSUNNY   84  56  38 NE3       30.25F
CLINES CORNERS PTSUNNY   82  51  34 W14       30.32S
BELEN          PTSUNNY   82  56  41 S28G35    30.18S
SOCORRO        LGT RAIN  73  59  62 NW17G28   30.17F

$$
NMZ524>526-539-540-252100-
SOUTHCENTRAL MOUNTAINS

CITY           SKY/WX    TMP DP  RH WIND       PRES   REMARKS
RUIDOSO        PTSUNNY   79  54  41 S3        30.33F

$$
NMZ527>531-252100-
NORTHEAST HIGHLANDS/NORTHEAST PLAINS

CITY           SKY/WX    TMP DP  RH WIND       PRES   REMARKS
LAS VEGAS      FAIR      83  53  35 SW16G25   30.27F
RATON          FAIR      90  52  27 S12       30.18F
CLAYTON        FAIR      94  54  25 S15G29    30.11F

$$
NMZ532>537-252100-
EASTCENTRAL PLAINS

CITY           SKY/WX    TMP DP  RH WIND       PRES   REMARKS
SANTA ROSA     MOCLDY    75  61  62 E9        30.14F
TUCUMCARI      PTSUNNY   99  57  24 S14G25    30.05F HX  98
CANNON AFB     PTSUNNY   89  62  39 S7        30.13F
CLOVIS AIRPORT FAIR      94  59  31 S15G21    30.13F

$$
NMZ028-029-538-252100-
SOUTHEAST PLAINS

CITY           SKY/WX    TMP DP  RH WIND       PRES   REMARKS
ROSWELL        FAIR      97  56  25 S15G26    30.05F HX  95
ARTESIA        FAIR      93  61  33 S22       30.06F
CARLSBAD       TSTM      82  70  66 W20       30.06S
HOBBS          MOSUNNY   93  54  26 SE10G20   30.11F


$$



USA.gov is the U.S. government's official web portal to all federal, state and local government web resources and services.